Location: Moscow
(55.7500°N, 37.5830°E)
Time: 14:06:33
(UTC+03:00)

Vanguard 1 - Pass Details

Date: 07 December 2021
Orbit: 652 x 3830 km, 34.2° (Epoch: 25 January)

Event Time Altitude Azimuth Distance (km) Brightness Sun altitude
Exits shadow 00:37:05 16° 112° (ESE) 5,979 13.9 -56.7°
Drops below altitude 10° 00:40:00 10° 106° (ESE) 6,337 14.1 -56.7°
Sets 00:44:53 0° 99° (E) 7,025 14.4 -56.6°
